www.pogodaiklimat.ru

Погода и климат >> Архив погоды >> Ирак >> Kut-Al-Hai


ПОГОДА в Kut-Al-Hai

  • Прогноз погоды в Kut-Al-Hai
  • Монитор погоды в Kut-Al-Hai
  • Климат города

АРХИВ ПОГОДЫ в Kut-Al-Hai

Время (UTC), дата Ветер
(напр.,м/с)
 
Видим.   Явления Облачность Т
(С)
Тd
(С)
f
(%)
Тe
(С)
Тes
(С)
Комфортность P
(гПа)
Po
(гПа)
Тmin
(С)
Tmax
(С)
R
(мм)
R24
(мм)
S
(см)
12 18.02 З 6 10 км 5/5 1050 м
[Cu med, cong Ac trans]
+18.8 +8.3 50 +19 +20 1011.3 1011.0
15 18.02 В 1 10 км ясно +17.4 +10.0 62 +18 +18 1012.5 1013.0
18 18.02 В 6 10 км в посл. час дождь 9/4 1050 м
[Sc As op]
+16.0 +10.3 69 +15 +15 1012.9 1013.0 +19.0 0.3
00 19.02 Ю 1 10 км в посл. час дождь 10/4 1080 м
[Sc As op]
+14.8 +10.8 77 +15 +15 1011.5 1012.0
06 19.02 З 3 10 км ясно +15.7 +11.6 77 +15 +20 1014.7 1015.0 +13.8
09 19.02 З 4 10 км 3/3 1050 м
[Cu hum]
+18.4 +9.2 55 +19 +24 1014.9 1015.0
12 19.02 З 6 10 км 5/5 900 м
[Cu med, cong]
+19.4 +7.7 47 +20 +21 1015.0 1015.0
15 19.02 З 4 10 км 1/1 900 м
[Cu hum]
+17.2 +9.5 61 +17 +17 1016.3 1016.0
18 19.02 штиль 0 10 км ясно +14.0 +10.9 82 +14 +14 1017.7 1018.0 +19.8
21 19.02 ЮВ 3 8000 м пыль {дождь} 10/4 900 м
[Sc As op]
+15.6 +10.7 73 +15 +15 1012.2 1012.0
00 20.02 штиль 0 10 км 3/3 1050 м
[Cu hum]
+12.2 +10.6 90 +12 +12 1018.0 1018.0
03 20.02 штиль 0 10 км 3/3 1050 м
[Cu hum]
+10.6 +9.4 92 +10 +10 1018.5 1019.0
06 20.02 штиль 0 6000 м дымка ясно +13.0 +11.1 88 +12 +20 1019.5 1020.0 +10.2
09 20.02 Ю 2 10 км 8/0
[Cs]
+17.2 +10.6 65 +18 +28 1018.9 1019.0
12 20.02 В 2 10 км 5/0
[Ac trans Ci fib]
+19.4 +8.7 50 +21 +24 комфорт 1016.3 1016.0
15 20.02 З 2 10 км 5/0
[Ac trans]
+18.2 +8.5 53 +19 +19 1016.3 1016.0
18 20.02 СЗ 2 10 км 3/0
[Ac trans]
+15.2 +9.8 70 +15 +15 1016.9 1017.0 +19.5
21 20.02 С 1 10 км 3/0
[Ac trans]
+13.7 +10.0 78 +14 +14 1016.6 1017.0
03 21.02 Ю 1 10 км 3/0
[Ac trans]
+9.3 +10 +10 1015.5 1016.0
06 21.02 В 1 10 км 9/3 1050 м
[Sc As op]
+14.4 +10.8 79 +15 +16 1015.9 1016.0 +13.3
09 21.02 В 2 8000 м слабый дождь 8/3 900 м
[Sc Ac trans]
+18.6 +10.8 60 +20 +25 1015.0 1015.0
12 21.02 В 4 10 км 8/0
[Ac trans]
+21.6 +7.8 41 +23 +24 комфорт 1013.0 1013.0
15 21.02 В 2 10 км 8/0
[Ac trans]
+20.2 +7.8 45 +22 +22 комфорт 1012.3 1012.0
18 21.02 В 2 10 км 8/0 600 м
[Ac trans]
+17.6 +7.5 52 +18 +18 1012.0 1012.0 +21.8 0.0
21 21.02 штиль 0 10 км ясно +14.6 +10.6 77 +14 +14 1012.1 1012.0
00 22.02 В 2 10 км ясно +14.0 +8.4 69 +14 +14 1010.7 1011.0
03 22.02 В 2 10 км ясно +12.8 +8.8 77 +12 +12 1011.3 1011.0
06 22.02 В 4 10 км 8/0
[As op Ci fib]
+16.6 +9.3 62 +16 +17 1011.8 1012.0 +12.4
09 22.02 В 2 10 км 8/0
[As op Ci fib]
+22.0 +7.6 39 +23 +27 комфорт 1011.1 1011.0
12 22.02 В 1 10 км 5/0
[Ci sp]
+24.8 +8.9 36 +25 +31 комфорт 1009.7 1010.0
18 22.02 З 1 10 км 5/0
[Ci sp]
+18.8 +10.4 58 +21 +21 комфорт 1011.3 1011.0 +25.4
21 22.02 З 2 10 км ясно +16.4 +9.9 65 +17 +17 1011.8 1012.0
00 23.02 С 2 10 км ясно +14.6 +10.2 75 +14 +14 1011.4 1011.0
06 23.02 В 3 10 км 8/3 900 м
[Cu med, cong Ac trans]
+16.6 +11.8 73 +16 +18 1013.2 1013.0 +12.3
09 23.02 ЮВ 2 10 км 9/5 1050 м
[Sc As trans]
+21.8 +12.4 55 +24 +27 комфорт 1012.4 1012.0
12 23.02 ЮВ 3 10 км 10/5 1050 м
[Sc As op]
+22.2 +11.1 49 +24 +25 комфорт 1010.5 1011.0
15 23.02 Ю 1 10 км 10/5 1050 м
[Sc As op]
+20.7 +11.3 55 +24 +24 комфорт 1010.4 1010.0
21 23.02 С 2 9000 м слабый дождь 9/5 900 м
[Sc As op]
+16.0 +12.3 79 +16 +16 1010.7 1011.0
00 24.02 С 1 10 км 4/0
[Ac trans]
+14.8 +12.4 86 +15 +15 1009.3 1009.0
03 24.02 С 4 10 км 4/0
[Ac und]
+14.6 +12.0 84 +13 +13 1007.6 1008.0
06 24.02 В 4 10 км 6/0
[Cs]
+17.2 +11.3 68 +17 +20 1008.2 1008.0 +14.4 0.0
09 24.02 ЮЗ 4 10 км 9/0
[As op]
+19.0 +13.4 70 +20 +22 1008.3 1008.0
12 24.02 З 5 10 км 9/3 900 м
[Sc As op]
+20.8 +14.3 66 +24 +24 комфорт 1007.8 1008.0
15 24.02 З 3 10 км 9/0
[Ac trans]
+19.0 +13.7 71 1008.9 1008.8
18 24.02 З 3 10 км слабый дождь 9/3 900 м
[Sc Ac trans]
+17.6 +14.1 80 +18 +18 1010.2 1010.0 +21.2
21 24.02 З 2 10 км 5/0
[Ac trans]
+15.6 +13.6 88 +15 +15 1010.5 1011.0
00 25.02 З 3 10 км ясно +14.0 +12.9 93 +13 +13 1010.6 1011.0

 

Местоположение метеостанции Kut-Al-Hai (Ирак): широта 32.17 долгота 46.05 высота над уровнем моря 15 м.

В архиве по умолчанию представлена погода в Kut-Al-Hai за последнюю неделю. Архивные данные за месяц целиком и за предыдущие месяцы, начиная с января 2011 года, Вы можете получить, выбрав интересующий диапазон дат из раскрывающегося списка и нажав кнопку "Ввод!".

Внимание! Время в таблицах - всемирное. Для получения местного времени необходимо прибавить поправку, которая в Kut-Al-Hai равна 3 ч.

Смотрите также архив погоды в соседних городах и на ближайших метеорологических станциях:

Погода в Ubaydah Bin Al Jarrah (Ирак) (45 км)
Погода в Rifai (Ирак) (50 км)
Погода в Ali Al-Gharbi (Ирак) (71 км)
Погода в Diwaniya (Ирак) (103 км)
Погода в Badrah (Ирак) (104 км)
Погода в Amarah (Ирак) (111 км)
Погода в Samawah (Ирак) (122 км)
Погода в Nasiriya (Ирак) (122 км)
Погода в Azizyah (Ирак) (124 км)
Погода в Hella (Ирак) (154 км)

Пояснения к столбцам:

Ветер - указаны скорость ветра в м/с - средняя за 10 мин, порывы в срок и между сроками (в фигурных скобках) и направление, откуда дует ветер: С - северный, СВ - северо-восточный, В - восточный, ЮВ - юго-восточный, Ю - южный, ЮЗ - юго-западный, З - западный, СЗ - северо-западный.
Видимость - горизонтальная дальность видимости в метрах или километрах. При видимости от 1 до 10 км при отсутствии осадков обычно наблюдается дымка, при ухудшении видимости до 1 км и менее - туман. В сухую погоду видимость может ухудшаться дымом, пылью или мглою.
Явления - указаны атмосферные явления, наблюдавшиеся в срок или в последний час перед сроком; фигурными скобками обозначены явления, наблюдавшиеся между сроками (за 1-3 часа до срока); квадратными скобками обозначены град или гололедные отложения с указанием их диаметра в мм.
Облачность - указаны через наклонную черту общая и нижняя облачность в баллах и высота нижней границы облаков в метрах; квадратными скобками обозначены формы облаков: Ci - перистые, Cs - перисто-слоистые, Cc - перисто-кучевые, Ac - высококучевые, As - высокослоистые, Sc - слоисто-кучевые, Ns - слоисто-дождевые, Cu - кучевые, Cb - кучево-дождевые. Подробнее классификацию облаков см. в Атласе облаков (PDF).
T - Температура воздуха - температура, измеренная на высоте 2 м над землей.
Td - Температура точки росы - температура, при понижении до которой содержащийся в воздухе водяной пар достигнет насыщения.
f - Относительная влажность воздуха - влажноcть воздуха, измеренная на высоте 2 м над землей.
Te - Эффективная температура - температура, которую ощущает одетый по сезону человек в тени. Характеристика душности погоды. При расчете учитывается влияние влажности воздуха и скорости ветра на теплоощущения человека.
Tes - Эффективная температура на солнце - температура, которую ощущает человек, с поправкой на солнечный нагрев. Характеристика знойности погоды. Зависит от высоты солнца над горизонтом, облачности и скорости ветра. Ночью, в пасмурную погоду, а также при ветре 12 м/с и более поправка равна нулю.
P - Атмосферное давление - приведенное к уровню моря атмосферное давление.
Po - Атмосферное давление - измеренное на уровне метеостанции атмосферное давление.
Tmin - Минимальная температура - минимум температуры воздуха на высоте 2 м над землей.
Tmax - Максимальная температура - максимум температуры воздуха на высоте 2 м над землей.
R - Количество осадков - Количество выпавших осадков за период времени, мм. При наведении курсора мыши на число - период времени, за который выпало указанное количество осадков.
R24 - Количество осадков - Количество выпавших осадков за 24 часа, мм.
S - Снежный покров - Высота снежного покрова, см. При наведении курсора мыши на число - состояние снежного покрова и степень покрытия местности в баллах.